SL-14 DEB, 45338

Orbit data source: Space-Track

SL-14 DEB, 45338 is space debris in LEO originally from a launch on Thu, 15 Aug 1991 UTC launched from the Plesetsk Missile And Space Complex (PKMTR). Debris objects in space refer to the collection of defunct objects orbiting the Earth. Examples of debris include non-operational satellites, rocket bodies, and fragments generated from explosions, collisions, or faulty payload assembly.

Loading next visibility...
Identifier
45338, 1991-056CC
Orbit
LEO
Country
Flag of CISCIS
Related business
Manufacturer
Unknown
Mission
Spacecraft
Bus & Motor
Unknown
Mass
Unknown
Launch date (UTC)
1991-08-15 (35 years ago)
Launch vehicle
Unknown
Launch site
Plesetsk Missile And Space Complex (PKMTR)
Object type
Payload
Rocket body
Debris
Shape & HBR
Unknown shape, 0.1 m
Radar Cross Section
Medium (>0.1 m² and <1 m²)

Expand to show TLE details & history
Last TLE update: 1 day ago

TLE from 1 day ago
0 SL-14 DEB
1 45338U 91056CC  26256.88088069  .00008706  00000-0  73154-2 0  9995
2 45338  82.5625 313.9698 0140808 138.0238 223.1818 13.83419548323995
Epoch: 2026-09-13T21:08Z
TLE epoch observation values (Epoch: 2026-09-13T21:08:28.091Z)
Latitude
-0.00002°
Longitude
3.98358°
Altitude
1,030.631 km
Speed
7.298 km/s
True Right ascension
20h 55m 52s
True Declination
0° 00' 00"
Sunlit
Object was in full shadow at epoch
Visualization orbit readout
Latitude
Unknown
Longitude
Unknown
Altitude
Unknown
Speed
Unknown
Apparent Right ascension
Unknown
Apparent Declination
Unknown
Sunlit
N/A
Visualization observer readout
Local Sidereal Time
13:37:57
Azimuth
Unknown
Elevation
Unknown
Doppler factor
Unknown
Orbital elements
Apogee altitude
1,052.105 km
Perigee altitude
845.763 km
Semi-major axis
7,327.071 km
Eccentricity
0.01408
Inclination
82.5625°
RAAN
313.9698°
Arg. of periapsis
138.0238°
True anomaly
222.09169°
Mean anomaly
223.1818°
Eccentric anomaly
222.63535°
Mean motion
3.46057 °/min
Orbital period
104.03 mins
BSTAR
0.0073154
Loading maneuver chart data...
Computing Atmospheric mass density...
Loading historical data...
Loading historical data...
Loading historical data...
Loading historical data...
Loading historical data...
Loading historical data...
Loading historical data...

Documentation

Showing up to 5 results
|